When you browse on this site, cookies collect data to enhance your experience and personalize the content and advertising you see.
Visit our Privacy Policy to learn more. By continuing to use the site, you agree to this use of cookies and data.
  • In Austria
  • List of Countries
  • For 7 days
  • Water Temperature
  • Satellite Maps
  • Weather Map
  • News
  • Weather Widgets
  • user-avatar
    Login

    Hourly Weather Tokyo

    Today, 19 February, Tuesday

    Time Temperature Precipitation Wind Pressure Humidity
    00:00 +11°C° 0 mm 1 mps 768 mmHg 56%
    01:00 +10°C° 0 mm 1 mps 767 mmHg 55%
    02:00 +10°C° 0 mm 1 mps 767 mmHg 55%
    03:00 +8°C° 0 mm 2 mps 767 mmHg 51%
    04:00 +9°C° 0 mm 1 mps 767 mmHg 49%
    05:00 +9°C° 0 mm 1 mps 767 mmHg 47%
    06:00 +8°C° 0 mm 1 mps 767 mmHg 44%
    07:00 +9°C° 0 mm 1 mps 767 mmHg 45%
    08:00 +9°C° 0 mm 1 mps 766 mmHg 46%
    09:00 +9°C° 0 mm 1 mps 766 mmHg 43%
    10:00 +9°C° 0.2 mm 2 mps 766 mmHg 48%
    11:00 +10°C° 0.2 mm 3 mps 765 mmHg 54%
    12:00 +11°C° 0.2 mm 4 mps 765 mmHg 59%
    13:00 +10°C° 0.6 mm 5 mps 764 mmHg 62%
    14:00 +11°C° 0.6 mm 6 mps 763 mmHg 65%
    15:00 +12°C° 0 mm 4 mps 762 mmHg 72%
    16:00 +12°C° 0.3 mm 4 mps 762 mmHg 72%
    17:00 +12°C° 0.3 mm 5 mps 761 mmHg 73%
    18:00 +11°C° 0.3 mm 6 mps 760 mmHg 74%
    19:00 +11°C° 0 mm 6 mps 760 mmHg 76%
    20:00 +11°C° 0 mm 6 mps 759 mmHg 78%
    21:00 +11°C° 0 mm 6 mps 758 mmHg 80%
    22:00 +11°C° 0 mm 6 mps 757 mmHg 83%
    23:00 +12°C° 0 mm 5 mps 756 mmHg 85%

    Tomorrow, 20 February, Wednesday

    Time Temperature Precipitation Wind Pressure Humidity
    00:00 +11°C° 0 mm 4 mps 756 mmHg 87%
    01:00 +11°C° 0 mm 3 mps 755 mmHg 86%
    02:00 +10°C° 0 mm 3 mps 755 mmHg 85%
    03:00 +10°C° 0 mm 2 mps 755 mmHg 85%
    04:00 +9°C° 0 mm 2 mps 755 mmHg 83%
    05:00 +9°C° 0 mm 2 mps 755 mmHg 81%
    06:00 +9°C° 0 mm 2 mps 756 mmHg 80%
    07:00 +10°C° 0 mm 2 mps 756 mmHg 75%
    08:00 +12°C° 0 mm 2 mps 756 mmHg 71%
    09:00 +13°C° 0 mm 2 mps 756 mmHg 66%
    10:00 +14°C° 0 mm 2 mps 756 mmHg 63%
    11:00 +15°C° 0 mm 2 mps 756 mmHg 61%
    12:00 +17°C° 0 mm 2 mps 756 mmHg 58%
    13:00 +17°C° 0 mm 2 mps 756 mmHg 59%
    14:00 +17°C° 0 mm 3 mps 755 mmHg 59%
    15:00 +17°C° 0 mm 4 mps 755 mmHg 60%
    16:00 +15°C° 0 mm 4 mps 756 mmHg 60%
    17:00 +14°C° 0 mm 4 mps 756 mmHg 61%
    18:00 +14°C° 0 mm 4 mps 756 mmHg 62%
    19:00 +14°C° 0.1 mm 3 mps 757 mmHg 65%
    20:00 +13°C° 0.1 mm 3 mps 757 mmHg 69%
    21:00 +14°C° 0.1 mm 2 mps 757 mmHg 73%
    22:00 +13°C° 0.8 mm 3 mps 757 mmHg 74%
    23:00 +12°C° 0.8 mm 4 mps 757 mmHg 75%

    Day after tomorrow, 21 February, Thursday

    Time Temperature Precipitation Wind Pressure Humidity
    00:00 +12°C° 0.8 mm 5 mps 757 mmHg 77%
    01:00 +10°C° 0 mm 6 mps 758 mmHg 66%
    02:00 +10°C° 0 mm 7 mps 758 mmHg 54%
    03:00 +9°C° 0 mm 7 mps 759 mmHg 43%
    04:00 +9°C° 0 mm 8 mps 759 mmHg 41%
    05:00 +7°C° 0 mm 8 mps 759 mmHg 39%
    06:00 +6°C° 0 mm 9 mps 760 mmHg 36%
    07:00 +7°C° 0 mm 8 mps 760 mmHg 34%
    08:00 +7°C° 0 mm 8 mps 761 mmHg 31%
    09:00 +9°C° 0 mm 7 mps 761 mmHg 28%
    10:00 +10°C° 0 mm 7 mps 761 mmHg 27%
    11:00 +11°C° 0 mm 6 mps 761 mmHg 26%
    12:00 +13°C° 0 mm 5 mps 761 mmHg 25%
    13:00 +13°C° 0 mm 5 mps 761 mmHg 24%
    14:00 +14°C° 0 mm 4 mps 761 mmHg 24%
    15:00 +14°C° 0 mm 3 mps 760 mmHg 24%
    16:00 +14°C° 0 mm 3 mps 761 mmHg 24%
    17:00 +14°C° 0 mm 2 mps 762 mmHg 25%
    18:00 +14°C° 0 mm 2 mps 762 mmHg 25%
    19:00 +14°C° 0 mm 2 mps 763 mmHg 26%
    20:00 +13°C° 0 mm 2 mps 763 mmHg 27%
    21:00 +13°C° 0 mm 2 mps 764 mmHg 29%
    22:00 +12°C° 0 mm 2 mps 764 mmHg 31%
    23:00 +12°C° 0 mm 2 mps 764 mmHg 34%

    22 February, Friday

    Time Temperature Precipitation Wind Pressure Humidity
    00:00 +10°C° 0 mm 2 mps 764 mmHg 37%
    01:00 +10°C° 0 mm 2 mps 764 mmHg 39%
    02:00 +9°C° 0 mm 2 mps 764 mmHg 41%
    03:00 +9°C° 0 mm 2 mps 764 mmHg 43%
    04:00 +9°C° 0 mm 2 mps 764 mmHg 43%
    05:00 +8°C° 0 mm 2 mps 764 mmHg 44%
    06:00 +8°C° 0 mm 2 mps 764 mmHg 44%
    07:00 +8°C° 0 mm 2 mps 765 mmHg 43%
    08:00 +9°C° 0 mm 2 mps 765 mmHg 41%
    09:00 +9°C° 0 mm 2 mps 765 mmHg 39%
    10:00 +10°C° 0 mm 2 mps 764 mmHg 41%
    11:00 +12°C° 0 mm 2 mps 764 mmHg 43%
    12:00 +14°C° 0 mm 2 mps 763 mmHg 44%
    13:00 +14°C° 0 mm 2 mps 762 mmHg 45%
    14:00 +14°C° 0 mm 3 mps 762 mmHg 47%
    15:00 +14°C° 0 mm 3 mps 761 mmHg 48%
    16:00 +14°C° 0 mm 3 mps 761 mmHg 50%
    17:00 +14°C° 0 mm 3 mps 760 mmHg 52%
    18:00 +13°C° 0 mm 3 mps 760 mmHg 54%
    19:00 +13°C° 0 mm 3 mps 760 mmHg 57%
    20:00 +13°C° 0 mm 3 mps 760 mmHg 59%
    21:00 +14°C° 0 mm 2 mps 760 mmHg 61%
    22:00 +13°C° 0.3 mm 2 mps 759 mmHg 66%
    23:00 +13°C° 0.3 mm 2 mps 759 mmHg 70%

    23 February, Saturday

    Time Temperature Precipitation Wind Pressure Humidity
    00:00 +13°C° 0.3 mm 2 mps 758 mmHg 75%
    01:00 +12°C° 0.7 mm 2 mps 757 mmHg 76%
    02:00 +12°C° 0.7 mm 2 mps 756 mmHg 78%
    03:00 +10°C° 0.7 mm 2 mps 756 mmHg 80%
    04:00 +10°C° 1.6 mm 2 mps 755 mmHg 82%
    05:00 +9°C° 1.6 mm 3 mps 754 mmHg 84%
    06:00 +8°C° 1.6 mm 4 mps 753 mmHg 86%
    07:00 +7°C° 2 mm 6 mps 753 mmHg 82%
    08:00 +6°C° 2 mm 7 mps 752 mmHg 78%
    09:00 +6°C° 2 mm 8 mps 752 mmHg 74%
    10:00 +6°C° 0.2 mm 8 mps 752 mmHg 68%
    11:00 +7°C° 0.2 mm 9 mps 752 mmHg 61%
    12:00 +7°C° 0.2 mm 9 mps 752 mmHg 55%
    13:00 +9°C° 0 mm 8 mps 752 mmHg 50%
    14:00 +9°C° 0 mm 7 mps 753 mmHg 45%
    15:00 +10°C° 0 mm 7 mps 753 mmHg 40%
    16:00 +9°C° 0 mm 6 mps 754 mmHg 39%
    17:00 +9°C° 0 mm 6 mps 754 mmHg 38%
    18:00 +9°C° 0 mm 6 mps 755 mmHg 37%
    19:00 +9°C° 0 mm 6 mps 756 mmHg 36%
    20:00 +8°C° 0 mm 5 mps 757 mmHg 35%
    21:00 +8°C° 0 mm 5 mps 758 mmHg 35%
    22:00 +7°C° 0 mm 5 mps 758 mmHg 35%
    23:00 +7°C° 0 mm 4 mps 759 mmHg 36%

    24 February, Sunday

    Time Temperature Precipitation Wind Pressure Humidity
    00:00 +6°C° 0 mm 4 mps 760 mmHg 37%
    01:00 +6°C° 0 mm 4 mps 760 mmHg 38%
    02:00 +5°C° 0 mm 3 mps 760 mmHg 40%
    03:00 +5°C° 0 mm 3 mps 761 mmHg 41%
    04:00 +5°C° 0 mm 3 mps 761 mmHg 42%
    05:00 +4°C° 0 mm 3 mps 762 mmHg 43%
    06:00 +4°C° 0 mm 3 mps 763 mmHg 44%
    07:00 +4°C° 0 mm 3 mps 763 mmHg 42%
    08:00 +6°C° 0 mm 2 mps 764 mmHg 40%
    09:00 +6°C° 0 mm 2 mps 764 mmHg 39%
    10:00 +7°C° 0 mm 2 mps 764 mmHg 35%
    11:00 +9°C° 0 mm 1 mps 764 mmHg 31%
    12:00 +10°C° 0 mm 1 mps 764 mmHg 28%
    13:00 +11°C° 0 mm 1 mps 764 mmHg 26%
    14:00 +11°C° 0 mm 1 mps 763 mmHg 24%
    15:00 +12°C° 0 mm 1 mps 763 mmHg 22%
    16:00 +12°C° 0 mm 2 mps 763 mmHg 22%
    17:00 +11°C° 0 mm 3 mps 764 mmHg 23%
    18:00 +11°C° 0 mm 3 mps 764 mmHg 24%
    19:00 +10°C° 0 mm 4 mps 765 mmHg 29%
    20:00 +10°C° 0 mm 4 mps 765 mmHg 35%
    21:00 +10°C° 0 mm 4 mps 765 mmHg 40%
    22:00 +8°C° 0 mm 4 mps 765 mmHg 45%
    23:00 +8°C° 0 mm 4 mps 765 mmHg 49%
    Show more